Retour au catalogue

PRAETORIAN SDA_517

ActifPO
NORAD 100075·PAYLOAD·🇺🇸 United States

Lancé Jul 16, 2026 depuis Vandenberg Space Force Base

Loading…

Prochains Passages (prochaines 24 heures)

TLE

FraisSource: Space-Track

Époque: Sep 14, 2026, 17:43 UTC

1 A0075U 26163S   26257.73846211  .00000133  00000-0  10433-3 0  9995
2 A0075  81.4773 255.1614 0017528  56.3130 303.9696 13.86148230  8302

Suivez PRAETORIAN SDA_517 en temps réel avec AllMySat

Download on the App Store